www.pogodaiklimat.ru

Погода и климат >> Архив погоды >> Эфиопия >> Макале


ПОГОДА в Макале

  • Прогноз погоды в Макале
  • Монитор погоды в Макале

АРХИВ ПОГОДЫ в Макале

Время (UTC), дата Ветер
(напр.,м/с)
 
Видим.   Явления Облачность Т
(С)
Тd
(С)
f
(%)
Тe
(С)
Тes
(С)
Комфортность P
(гПа)
Po
(гПа)
Тmin
(С)
Tmax
(С)
R
(мм)
R24
(мм)
S
(см)
03 19.08 С 1 3000 м туман местами 9/9 600 м
[Sc]
+15.0 +14.5 97 +15 +15 1026.6 779.6
09 19.08 СЗ 2 25 км мгла {туман} 6/6 600 м
[Cu Sc]
+20.2 +14.6 70 +23 +32 комфорт 1027.9 780.6
03 20.08 штиль 0 30 км дымка 3/0
[Ci fib]
+13.6 +13.0 96 +13 +13 1027.3 780.2
06 20.08 штиль 0 30 км 4/3 600 м
[Cu hum Ci fib]
+18.6 +14.4 77 +19 +28 1028.9 781.4 +11.5 1
09 20.08 С 1 30 км 4/4 600 м
[Cu Sc]
+23.6 +13.8 54 +26 +41 жарко 1027.6 870.4
12 20.08 В 5 30 км 4/4 600 м
[Cu hum]
+24.6 +9.2 38 +25 +30 комфорт 1025.9 779.1
06 21.08 штиль 0 30 км 1/0
[Ci fib]
+19.6 +10.0 54 +21 +33 комфорт 1028.0 780.7 +12.0
09 21.08 штиль 0 30 км 1/1 600 м
[Cu hum]
+23.6 +11.2 46 +25 +52 комфорт 1027.5 780.3
12 21.08 СВ 4 30 км 5/5 600 м
[Cu hum]
+26.0 +5.8 27 +25 +30 комфорт 1025.5 778.5
15 21.08 В 5 30 км 4/3 630 м
[Cu hum Ci fib]
+23.2 +8.3 38 +24 +24 комфорт 1025.1 778.5
06 22.08 штиль 0 25 км мгла 6/5 630 м
[Sc Ac trans]
+19.6 +12.6 64 +21 +27 комфорт 1026.9 779.9 +13.6
09 22.08 штиль 0 25 км мгла 6/5 630 м
[Cu Sc Ac trans]
+22.0 +12.5 55 +25 +38 комфорт 1026.9 779.9
12 22.08 С 3 10 км гроза без осадков 9/9 600 м
[Cb cap]
+20.4 +13.5 65 +23 +24 комфорт 1024.5 778.1
15 22.08 штиль 0 10 км осадки на расстоянии 8/8 600 м
[Cu Sc]
+18.3 +14.6 79 +19 +19 1025.6 778.0
03 23.08 штиль 0 10 км дымка 8/8 210 м
[Sc]
+14.3 +13.8 97 +14 +14 1027.3 780.2
06 23.08 З 4 10 км дымка 9/9 300 м
[Sc]
+17.5 +15.3 87 +17 +18 1029.1 781.6 +13.8
09 23.08 З 4 30 км 9/9 600 м
[Cu hum]
+20.6 +15.4 72 +24 +25 комфорт 1028.6 781.2
12 23.08 ЮЗ 1 20 км гроза, ливневой дождь 10/10 600 м
[Cb cap]
+17.0 +14.1 83 +18 +18 1026.8 779.8
15 23.08 СЗ 4 25 км дымка {гроза, дождь} 9/9 600 м
[Cu Sc]
+18.2 +15.1 82 +18 +18 1026.8 779.8
03 24.08 З 2 1000 м туман 10/10 <50 м
[St]
+13.1 +12.9 99 +12 +12 1029.8 782.1
06 24.08 З 4 15 км дымка {туман} 10/10 300 м
[Sc]
+14.6 +13.2 91 +13 +13 1030.9 783.0 +13.0 4
09 24.08 З 4 30 км 8/8 600 м
[Cu hum]
+19.2 +13.3 69 +20 +23 1030.0 782.3
03 25.08 штиль 0 1000 м туман местами 4/0 2000 м
[Ac trans]
+11.6 +11.3 98 +11 +11 1028.9 781.4
09 25.08 С 2 30 км 1/1 600 м
[Cu hum]
+20.8 +11.6 56 +24 +43 комфорт 1026.7 779.7
12 25.08 В 3 30 км 6/6 600 м
[Cu Sc]
+23.2 +11.1 46 +25 +30 комфорт 1025.8 779.0

 

Местоположение метеостанции Макале (Эфиопия): широта 13.50 долгота 39.48 высота над уровнем моря 2070 м.

В архиве по умолчанию представлена погода в Макале за последнюю неделю. Архивные данные за месяц целиком и за предыдущие месяцы, начиная с января 2011 года, Вы можете получить, выбрав интересующий диапазон дат из раскрывающегося списка и нажав кнопку "Ввод!".


*Определитесь, кто Вы:
робот инопланетянин человек

Внимание! Время в таблицах - всемирное. Для получения местного времени необходимо прибавить поправку, которая равна 3 ч.

Смотрите также архив погоды в соседних городах и на ближайших метеорологических станциях:

Погода в Гондэре (Эфиопия) (247 км)
Погода в Комбольча (Эфиопия) (266 км)
Погода в Бахар Дар (Эфиопия) (308 км)
Погода в Ходейде (Йемен) (402 км)
Погода в Дэбрэ-Маркосе (Эфиопия) (404 км)
Погода в Гедарефе (Судан) (445 км)
Погода в Джибути () (454 км)
Погода в Хальфа-эль-Гайдида (Судан) (464 км)
Погода в Гизане (Саудовская Аравия) (502 км)
Погода в Таизе (Йемен) (503 км)

Пояснения к столбцам:

Ветер - указаны скорость ветра в м/с - средняя за 10 мин, порывы в срок и между сроками (в фигурных скобках) и направление, откуда дует ветер: С - северный, СВ - северо-восточный, В - восточный, ЮВ - юго-восточный, Ю - южный, ЮЗ - юго-западный, З - западный, СЗ - северо-западный.
Видимость - горизонтальная дальность видимости в метрах или километрах. При видимости от 1 до 10 км при отсутствии осадков обычно наблюдается дымка, при ухудшении видимости до 1 км и менее - туман. В сухую погоду видимость может ухудшаться дымом, пылью или мглою.
Явления - указаны атмосферные явления, наблюдавшиеся в срок или в последний час перед сроком; фигурными скобками обозначены явления, наблюдавшиеся между сроками (за 1-3 часа до срока); квадратными скобками обозначены град или гололедные отложения с указанием их диаметра в мм.
Облачность - указаны через наклонную черту общая и нижняя облачность в баллах и высота нижней границы облаков в метрах; квадратными скобками обозначены формы облаков: Ci - перистые, Cs - перисто-слоистые, Cc - перисто-кучевые, Ac - высококучевые, As - высокослоистые, Sc - слоисто-кучевые, Ns - слоисто-дождевые, Cu - кучевые, Cb - кучево-дождевые. Подробнее классификацию облаков см. в Атласе облаков (PDF).
T - Температура воздуха - температура, измеренная на высоте 2 м над землей.
Td - Температура точки росы - температура, при понижении до которой содержащийся в воздухе водяной пар достигнет насыщения.
f - Относительная влажность воздуха - влажноcть воздуха, измеренная на высоте 2 м над землей.
Te - Эффективная температура - температура, которую ощущает одетый по сезону человек в тени. Характеристика душности погоды. При расчете учитывается влияние влажности воздуха и скорости ветра на теплоощущения человека.
Tes - Эффективная температура на солнце - температура, которую ощущает человек, с поправкой на солнечный нагрев. Характеристика знойности погоды. Зависит от высоты солнца над горизонтом, облачности и скорости ветра. Ночью, в пасмурную погоду, а также при ветре 12 м/с и более поправка равна нулю.
P - Атмосферное давление - приведенное к уровню моря атмосферное давление.
Po - Атмосферное давление - измеренное на уровне метеостанции атмосферное давление.
Tmin - Минимальная температура - минимум температуры воздуха на высоте 2 м над землей.
Tmax - Максимальная температура - максимум температуры воздуха на высоте 2 м над землей.
R - Количество осадков - Количество выпавших осадков за период времени, мм. При наведении курсора мыши на число - период времени, за который выпало указанное количество осадков.
R24 - Количество осадков - Количество выпавших осадков за 24 часа, мм.
S - Снежный покров - Высота снежного покрова, см. При наведении курсора мыши на число - состояние снежного покрова и степень покрытия местности в баллах.